Погода в Кирове

Погода в Кирове : погода сейчас, прогноз погоды и архив. Всё, что Вы хотите узнать о погоде в Кирове!

Хотите узнать прогноз погоды в Кирове? Тогда Вам сюда: Погода в Кирове

Поиск расширенной информации на нашем сайте:

Другие новости

Новости СМИ2

Главная страница сайта

Новости сайта

02.10.2013

Напоминаем, что на нашем новом сайте вы можете получить высокодетализированные прогнозы погоды по пунктам России, СНГ и мира (включающие важные для авиации метеовеличины, такие как направление и скорость ветра, видимость, явления погоды, количество и форма облачности, нижняя и верхняя граница облачности), а также ознакомиться с разнообразными материалами по авиационной метеорологии и подборкой полезных ссылок на эту тему.

Сайт Метеоцентр.Азия посвящён разработке технологий оптимизации авиаметеорологического обслуживания, включая проектирование и перспективное создание нескольких автоматизированных авиаметеорологических систем:
- система выпуска высокодетальных прогностических карт явлений погоды для нижнего воздушного пространства по России и ближнему зарубежью;
- система верификации прогнозов TAF (выпускаемых синоптиками официальных АМСГ РФ и ближнего зарубежья) и AUTOTAF (выпускаемых сайтом Метеоцентр.Азия) - выявление ошибок, онлайн-сопоставление с фактической погодой METAR, автоматическое внесение коррективов в прогнозы при резком отклонении фактической погоды от прогноза, подсчёт оправдываемости прогнозов по элементам и в целом;
- система обработки, анализа и отображения авиаметеорологической информации для применения провайдерами метеорологической информации.

Рекомендуем: Деревянные окна Marconi

Погода в Кирове - сегодня

Время (UTC), дата Ветер
(°,м/с) 
Видим.   Явления Облачность Т
(°С)
Тd
(°С)
f(%) Тe
(°С)
Pmin
(гПа)
dP
(гПа)
Po
(мм)
O2
(г/м3)
Тmin Tmax R s Состояние
почвы
09 24.05.17 310 (СЗ) 3-7{09}  20000 м    9/9 600 м кучево-дожд. 
[Cb calv]
+15.2 +1.9 41 +15  1008.8  1.4  743  283           
12 24.05.17 310 (СЗ) 2-5{09}  20000 м    6/6 600 м 
[Cu hum]
+15.6 -3 28 +16  1010  1.2  743  284           
15 24.05.17 340 (С) 3-7{09}  20000 м    8/0 верхняя 
[Ci fib]
+15.2 -3.8 27 +15  1011.3  1.2  744  285    +16.5       
18 24.05.17 360 (С) 2-4{08}  20000 м    10/0 верхняя 
[Ci]
+11.4 -6.7 27 +12  1013.6  2.1  746  289           
21 24.05.17 030 (СВ) 1-3{04}  20000 м    ясно 
+8.2 -5.7 37 +9  1015.9  747  293           
00 25.05.17 090 (В) 1-2{03}  20000 м    3/0 верхняя 
[Ci fib]
+4.8 -5.5 47 +6  1017.4  1.2  748  297           
03 25.05.17 120 (ЮВ) 2-4{04}  20000 м    4/0 верхняя 
[Ci fib]
+7.7 -3.3 46 +8  1017.8  0.8  749  294  +4.4        сухая 
06 25.05.17 нст () 1-4{04}  20000 м    1/0 верхняя 
[Ci fib]
+13 -4.7 29 +14  1018  0.4  749  289           
09 25.05.17 290 (З) 1-3{07}  20000 м    ясно 
+15.4 -4.7 25 +17  1016.9  -1  749  286           
12 25.05.17 090 (В) 2-6{07}  20000 м    3/0 средняя, верхняя 
[Ac trans|Ci fib]
+18.4 -2.2 25 +19  1014.9  -1.7  747  282           
15 25.05.17 170 (Ю) 3-6{07}  20000 м    9/4 1000 м средняя, верхняя 
[Sc|Ac trans|Ci]
+18.2 +0.9 31 +19  1012.6  -2.3  746  281    +19.6       
18 25.05.17 120 (ЮВ) 2-4{06}  20000 м    10/5 600 м кучево-дожд., средняя 
[Cb calv|Ac As]
+16 +2.1 39 +17  1011.1  -1.6  744  283           
21 25.05.17 210 (ЮЗ) 3-7{07}  20000 м  гроза, ливневой дождь  10/8 600 м кучево-дожд., средняя 
[Cb cap|Ac As]
+15.2 +5.3 52 +15  1008.9  -2.2  743  283           
00 26.05.17 200 (Ю) 2-5{07}  20000 м  {гроза, ливн. осадки}  4/0 средняя, верхняя 
[Ac lent|Ci fib]
+13.3 +11 86 +17  1007.6  -1.4  742  283           
03 26.05.17 230 (ЮЗ) 4-8{09}  20000 м    8/8 600 м 
[Sc diur, vesp]
+13.4 +11 85 +16  1007.8  0.2  742  283  +12.7    0.9    влажная 
06 26.05.17 230 (ЮЗ) 5-9{12}  20000 м    9/5 600 м верхняя 
[Cu med, cong|Ci]
+16.4 +7.8 57 +16  1007.9  0.3  742  281           
09 26.05.17 250 (З) 4-11{13}  20000 м    9/8 600 м кучево-дожд., верхняя 
[Cb calv|Cc]
+18.8 +6.1 43 +19  1007.9  0.2  742  279           
12 26.05.17 260 (З) 5-12{13}  20000 м    8/8 600 м кучево-дожд. 
[Cb calv]
+21 +5.3 36 +21  1007.2  -0.6  742  277           
15 26.05.17 280 (З) 2-4{13}  20000 м    9/8 600 м кучево-дожд., верхняя 
[Cb calv|Ci sp]
+19.2 +4.8 39 +20  1006.4  -0.9  741  278    +21       
03 27.05.17 250 (З) 3-6{07}  20000 м    8/5 600 м кучево-дожд., средняя 
[Cb calv|Ac trans]
+13.8 +10.5 80 +16  1002.7  -0.8  738  281  +12.1        сухая 
15 27.05.17 340 (С) 4-10{10}  20000 м    9/8 300 м кучево-дожд., верхняя 
[Cb calv|Ci fib]
+9.1 -0.9 50 +8  1008.6  1.3  742  289    +15.7  0.1     
03 28.05.17 350 (С) 4-8{09}  20000 м    6/5 600 м средняя 
[Sc diur, vesp|Ac trans]
+1.4 -8.2 49 -1  1012.7  1.2  745  299  +0.9        сухая 
15 28.05.17 340 (С) 2-5{07}  20000 м    8/8 600 м кучево-дожд., средняя 
[Cb cap|Ac trans]
+7 -6.7 37 +7  1012.7  0.1  745  293    +7.9  0.0     
03 29.05.17 220 (ЮЗ) 1-2{03}  20000 м    9/9 600 м 
[Sc]
+3 -0.8 76 +4  1013.2  -1  745  297  -1.7        сухая 
15 29.05.17 210 (ЮЗ) 3-6{10}  20000 м    10/6 600 м средняя 
[Sc|Ac As]
+7.6 -0.5 56 +7  1005.7  -1.1  740  290    +10.7       
Время (UTC), дата Ветер
(°,м/с) 
Видим.   Явления Облачность Т
(°С)
Тd
(°С)
f(%) Тe
(°С)
Pmin
(гПа)
dP
(гПа)
Po
(мм)
O2
(г/м3)
Тmin Tmax R s Состояние
почвы

Для получения пояснительной информации подведите курсор к названию столбца.

ПОГОДА в Кирове - архив

Всё, что Вы хотите узнать о погоде в Кирове - удобно и подробно!

Выберите нужную дату (начиная с 1 января 2015* года) и нажмите кнопку "Найти".
Будут отображены архивные сводки погоды по пункту Киров, начиная с указанной даты.


Отображать данные в формате CSV (для использования в таблицах Excel)


Внимание! Наш архив погоды предназначен исключительно для личного некоммерческого использования в познавательных целях. Если Вам необходимы официальные справки о состоянии погоды (для производственных, юридических, коммерческих и т.п. целей), обращайтесь в органы Росгидромета.

*Примечание: данная дата относится к архиву по метеостанциям СССР (Россия, СНГ, Балтия).
Архив по метеостанциям Зарубежной Европы и Азии (кроме Китая) хранится 10 дней, по другим регионам земного шара (Китай, Африка, Америка, Австралия, Океания) - 1 день.

Киров - район местоположения метеостанции


Название, широта, долгота, высота метеостанции:
Киров 58.6°ш. 49.6°д. 158 м над ур. моря [Российская Федерация]

Дополнительная информация

В oтличие oт бoльшинства пoгoдных сайтoв мы публикуем пoдрoбную метеoинфoрмацию в детальнoм прoфессиoнальнoм фoрмате.

Характеристики температуры и влажнoсти вoздуха измеряются на высoте 2 м в тени вдали oт зданий и деревьев.
Скoрoсть ветра измеряется на высoте 10 м (на урoвне рoста челoвека скoрoсть ветра ниже в 1.5-2 раза). Если метеoстанция нахoдится в гoрoде или в лесу, тo скoрoсть ветра занижена на 2-4 м/с пo сравнению с oткрытым местoм. Скoрoсть ветра над акватoриями крупных рек и oзёр, а также на вершинах хoлмoв на 2-5 м/с выше, чем в oбычных услoвиях.
Атмoсфернoе давление в разных тoчках местнoсти мoжет значительнo oтличаться oт давления на метеoстанции, в зависимoсти oт услoвий рельефа (при пoдъёме на 10 м давление пoнижается примернo на 1 мм рт.ст.).